[[{"header":{"parameterUnit":"m.s-1","parameterCategory":1,"la1":30.2991,"la2":30.254,"lo1":-89.0895,"lo2":-89.0444,"dy":0.0017,"dx":0.0017,"nx":28,"ny":28,"refTime":"2025-07-17T21:00:00:Z","depth":0,"parameterNumber":2,"parameterNumberName":"U-component_of_WINDS"},"data":[0,0,0,0,0,0,0,0,0,0,0,0,0,0,0,0,0,0,0,0,0,0,0,0,0,0,0,0,0,0,0,0,0,0,0,0,0,0,0,0,0,0,0,0,0,0,0,0,0,0,0,0,0,0,0,0,0,0,0.9755,0.9755,0,0.9732,0.9731,0.9731,0.9679,0.9678,0.9677,0.9676,0.9651,0.9652,0.9652,0,0,0,0,0,0,0,0,0,0,0,0,0,0.9755,0.9756,0.9755,0.9755,0.9755,0.9732,0.9731,0.9731,0.968,0.9678,0.9677,0.9676,0.9651,0.9652,0.9652,0,0,0,0,0,0,0,0,0,0,0,0,0,0.9746,0.9756,0.9755,0.9726,0.9724,0.9732,0.9731,0.9731,0.968,0.9678,0.9677,0.9675,0.9651,0.9652,0.9652,0.9686,0,0,0.9653,0.9654,0,0,0,0,0,0,0,0,0.9746,0.9746,0.9731,0.9728,0.9725,0.9707,0.9722,0.9716,0.968,0.9696,0.9676,0.9674,0.9671,0.967,0.9669,0.9685,0.9684,0.9654,0.9654,0.9654,0.9654,0,0,0,0,0,0,0,0.9747,0.9747,0.9746,0.9731,0.9727,0.9714,0.9711,0.9721,0.9693,0.9695,0.9691,0.9689,0.9669,0.9668,0.9668,0.9684,0.9653,0.9654,0.9654,0.9654,0.9724,0.9726,0,0,0,0,0,0,0.9752,0.9748,0.9747,0.9745,0.9732,0.9715,0.9712,0.9714,0.9693,0.9688,0.969,0.9687,0.9668,0.9667,0.9667,0.9703,0.9654,0.9654,0.9655,0.9723,0.9725,0.9726,0,0,0,0,0,0,0.9752,0.9753,0.9748,0.9745,0.9744,0.9717,0.972,0.9715,0.9714,0.9689,0.9684,0.9695,0.9667,0.9666,0.9681,0.9702,0.9655,0.9655,0.9721,0.9723,0.9725,0.9778,0,0,0,0,0,0,0.9753,0.9753,0.9766,0.9746,0.9744,0.9763,0.9721,0.9715,0.9715,0.971,0.9692,0.9687,0.9666,0.9681,0.9682,0.9701,0.9655,0.9719,0.9722,0.9725,0.9774,0.9782,0.9788,0,0,0,0,0,0.9753,0.9782,0.9767,0.9767,0.976,0.9765,0.9763,0.9738,0.9717,0.9729,0.9713,0.9688,0.97,0.9683,0.9683,0.9704,0.9717,0.9721,0.9725,0.9771,0.978,0.9788,0,0,0,0,0,0,0.9805,0.9779,0.9762,0.9786,0.9778,0.9756,0.9771,0.9749,0.9747,0.9742,0.9711,0.9707,0.9726,0.9717,0.9698,0.9734,0.9704,0.9708,0.974,0.9748,0.9755,0.9756,0.9656,0,0,0,0,0,0.982,0.9826,0.9803,0.9826,0.9823,0.9798,0.9799,0.978,0.977,0.9767,0.9752,0.9743,0.9744,0.9746,0.9746,0.9773,0.9767,0.9787,0.9794,0.98,0.9803,0.9814,0.9822,0.9738,0.9738,0.9738,0,0,0.985,0.9836,0.9842,0.9836,0.9828,0.9834,0.9795,0.9804,0.9808,0.9768,0.9781,0.977,0.9758,0.9778,0.9787,0.9771,0.9826,0.9805,0.981,0.9809,0.9819,0.9827,0.9834,0.974,0.974,0.974,0,0,0.9907,0.9898,0.9915,0.9907,0.9895,0.9878,0.9882,0.9863,0.9854,0.9867,0.9836,0.984,0.9844,0.9836,0.9833,0.9886,0.9862,0.9887,0.9923,0.9935,0.9941,0.9947,0.9964,0.997,0.9891,0.9891,0.9891,0,0.9945,0.9954,0.9927,0.9937,0.9935,0.9899,0.9915,0.9909,0.9898,0.9896,0.9879,0.9882,0.9872,0.9889,0.9902,0.9901,0.9903,0.9888,0.9943,0.9948,0.9953,0.9968,0.9975,0.9894,0.9894,0.9893,0.9893,0,1.0,1.0007,1.0022,1.0011,1.0011,1.0025,0.9999,1.0002,0.9983,0.9968,0.998,0.9966,0.9962,0.9965,0.9947,0.9979,0.997,0.9948,0.9917,0.9964,0.9978,0.9984,0.9898,0.9897,0.9896,0.9895,0,0,1.0089,1.0063,1.0068,1.0062,1.0046,1.005,1.0061,1.0057,1.0059,1.0053,1.006,1.0064,1.0043,1.0039,1.002,1.0031,1.0071,1.0007,1.0006,1.0018,1.0103,1.0117,1.0125,1.0056,1.0057,1.0057,1.0103,0,1.014,1.0158,1.0134,1.0157,1.0161,1.0127,1.0137,1.0127,1.0113,1.0115,1.0099,1.0101,1.0075,1.0072,1.0081,1.0064,1.0087,1.0061,1.0061,1.0061,1.0063,1.0133,1.0149,1.0192,1.0108,1.0109,1.011,0,1.0202,1.0198,1.0221,1.0201,1.0202,1.0212,1.0205,1.0207,1.0195,1.0184,1.018,1.0157,1.0165,1.0137,1.0147,1.013,1.0129,1.0121,1.0122,1.0119,1.0087,1.013,1.0206,1.0211,1.0119,1.0118,1.0118,0,1.0261,1.0262,1.0275,1.0271,1.0249,1.0256,1.0247,1.0234,1.0233,1.0227,1.0225,1.0221,1.0218,1.0215,1.0191,1.0173,1.0204,1.0174,1.0193,1.0194,1.02,1.02,1.0275,1.0203,1.0203,1.0203,1.0203,0,1.032,1.0335,1.0301,1.0309,1.0324,1.0297,1.0312,1.03,1.0288,1.0293,1.0264,1.0268,1.0237,1.0238,1.022,1.023,1.023,1.022,1.0214,1.0221,1.0222,1.0219,1.0214,1.0205,1.0204,1.0204,1.0204,0,1.0388,1.0366,1.0378,1.0356,1.0351,1.0363,1.0344,1.035,1.0334,1.034,1.034,1.0315,1.0314,1.029,1.0285,1.0273,1.029,1.028,1.0294,1.029,1.031,1.0308,1.0383,1.0391,1.0317,1.0318,1.0318,0,1.0426,1.0436,1.0416,1.0416,1.0409,1.0411,1.0409,1.0382,1.0381,1.0368,1.0375,1.0372,1.0368,1.0369,1.035,1.0345,1.0333,1.036,1.0332,1.0338,1.0331,1.033,1.033,1.0366,1.0367,1.0367,1.0368,0,1.0494,1.0482,1.0481,1.0476,1.0474,1.0469,1.0461,1.0464,1.0434,1.0434,1.0433,1.043,1.0425,1.0421,1.0413,1.0403,1.038,1.0377,1.0381,1.0387,1.0394,1.0388,1.0307,1.0375,1.0374,1.0374,1.0373,1.0373,1.0546,1.0553,1.0539,1.0538,1.053,1.0524,1.0527,1.0512,1.0511,1.0504,1.0488,1.0489,1.0476,1.0462,1.0455,1.0454,1.0441,1.0447,1.0448,1.0449,1.0452,1.0396,1.0453,1.0453,1.0453,1.0452,1.0452,0,1.0611,1.06,1.06,1.059,1.0589,1.0568,1.0559,1.0559,1.056,1.055,1.0547,1.0545,1.0541,1.0522,1.0516,1.052,1.0509,1.0519,1.0517,1.0515,1.0466,1.0462,1.0527,1.0527,1.0527,1.0527,1.0527,1.0527,1.0644,1.0654,1.0641,1.0647,1.0636,1.0637,1.0633,1.0626,1.0617,1.0617,1.0614,1.0601,1.0587,1.0579,1.0575,1.0569,1.0567,1.0581,1.0571,1.0526,1.0518,1.0511,1.0507,1.0581,1.0581,1.0619,1.062,1.062]},{"header":{"parameterUnit":"m.s-1","parameterCategory":1,"la1":30.2991,"la2":30.254,"lo1":-89.0895,"lo2":-89.0444,"dy":0.0017,"dx":0.0017,"nx":28,"ny":28,"refTime":"2025-07-17T21:00:00:Z","depth":0,"parameterNumber":3,"parameterNumberName":"V-component_of_WINDS"},"data":[0,0,0,0,0,0,0,0,0,0,0,0,0,0,0,0,0,0,0,0,0,0,0,0,0,0,0,0,0,0,0,0,0,0,0,0,0,0,0,0,0,0,0,0,0,0,0,0,0,0,0,0,0,0,0,0,0,0,5.503,5.5033,0,5.5322,5.5325,5.5329,5.5337,5.5333,5.533,5.5326,5.5621,5.5631,5.5643,0,0,0,0,0,0,0,0,0,0,0,0,0,5.4473,5.4483,5.503,5.5033,5.5037,5.5321,5.5325,5.5329,5.5338,5.5333,5.5329,5.5325,5.5617,5.563,5.5644,0,0,0,0,0,0,0,0,0,0,0,0,0,5.4734,5.4486,5.5029,5.5075,5.5083,5.5321,5.5326,5.533,5.5338,5.5333,5.5328,5.5323,5.5613,5.5629,5.5645,5.5855,0,0,5.5696,5.5704,0,0,0,0,0,0,0,0,5.472,5.4755,5.5065,5.5073,5.5081,5.5288,5.5237,5.5506,5.534,5.5241,5.5326,5.532,5.5514,5.5538,5.5605,5.5869,5.5882,5.5698,5.5708,5.5715,5.572,0,0,0,0,0,0,0,5.4701,5.4742,5.5145,5.5069,5.5079,5.508,5.5111,5.5288,5.5404,5.5249,5.5251,5.5285,5.5517,5.5589,5.5612,5.5886,5.5697,5.5712,5.5723,5.5729,5.6335,5.6341,0,0,0,0,0,0,5.4675,5.4727,5.5136,5.5154,5.4884,5.5094,5.5129,5.5227,5.5402,5.5423,5.529,5.5285,5.5563,5.5592,5.5622,5.5879,5.5715,5.5731,5.574,5.6329,5.6336,5.6343,0,0,0,0,0,0,5.4663,5.4711,5.5124,5.4941,5.4994,5.5109,5.5219,5.5235,5.5307,5.5432,5.5452,5.5342,5.556,5.5598,5.5797,5.5889,5.5738,5.5754,5.6322,5.6331,5.634,5.6394,0,0,0,0,0,0,5.4647,5.4707,5.479,5.4943,5.5003,5.5297,5.5225,5.5245,5.5336,5.5332,5.5487,5.5507,5.5558,5.5772,5.5814,5.5909,5.5767,5.6314,5.6326,5.6337,5.6384,5.6404,5.642,0,0,0,0,0,5.4627,5.4793,5.4794,5.4843,5.511,5.5302,5.5336,5.5394,5.5344,5.5426,5.5507,5.5502,5.5872,5.5792,5.5839,5.5941,5.6309,5.6323,5.6336,5.6376,5.64,5.642,0,0,0,0,0,0,5.4646,5.4814,5.4817,5.5037,5.5155,5.5303,5.541,5.5417,5.555,5.5541,5.5605,5.5639,5.5837,5.5909,5.5817,5.6152,5.6084,5.6108,5.6099,5.6122,5.614,5.6118,5.5781,0,0,0,0,0,5.4676,5.482,5.4958,5.5139,5.5198,5.5294,5.5379,5.5413,5.5537,5.5587,5.5682,5.5801,5.5944,5.6037,5.6175,5.6394,5.6427,5.6487,5.6505,5.6519,5.6539,5.6658,5.6686,5.6388,5.6388,5.6387,0,0,5.4739,5.4848,5.4935,5.5146,5.5241,5.5387,5.5336,5.5492,5.5601,5.561,5.5804,5.5878,5.6014,5.6224,5.6321,5.629,5.6628,5.6536,5.6546,5.6559,5.6675,5.6703,5.6728,5.6397,5.6395,5.6394,0,0,5.4929,5.5027,5.5188,5.5285,5.543,5.5492,5.553,5.5677,5.5727,5.5922,5.5932,5.606,5.6306,5.6403,5.6484,5.6708,5.6708,5.6751,5.6844,5.696,5.6984,5.7005,5.7084,5.7112,5.677,5.677,5.677,0,5.4989,5.5211,5.5269,5.5427,5.5518,5.5534,5.5697,5.5787,5.5969,5.6031,5.5994,5.6301,5.6394,5.6626,5.668,5.6746,5.679,5.6734,5.6976,5.6998,5.7018,5.7094,5.7124,5.6774,5.6774,5.6773,5.6773,0,5.5277,5.5431,5.5543,5.572,5.5824,5.5982,5.6063,5.616,5.6184,5.6249,5.6446,5.6559,5.672,5.6777,5.6801,5.7012,5.6988,5.6963,5.6895,5.705,5.7122,5.7152,5.678,5.6779,5.6777,5.6776,0,0,5.549,5.5696,5.5736,5.5816,5.5976,5.6095,5.6253,5.6412,5.6493,5.6618,5.6751,5.6957,5.6934,5.7026,5.7061,5.7163,5.7332,5.7125,5.7129,5.7159,5.7569,5.7587,5.762,5.7332,5.7338,5.7343,5.7557,0,5.5697,5.5981,5.6037,5.6282,5.6424,5.644,5.6577,5.6689,5.6753,5.6881,5.6951,5.7096,5.7055,5.7111,5.7212,5.729,5.7415,5.7275,5.7455,5.7461,5.7422,5.7658,5.7679,5.7876,5.7586,5.7591,5.7594,0,5.5978,5.611,5.637,5.651,5.6571,5.6694,5.6843,5.6965,5.7091,5.7131,5.7233,5.7256,5.7419,5.7343,5.7566,5.747,5.7546,5.7596,5.7604,5.7624,5.7538,5.7684,5.7941,5.797,5.764,5.7636,5.7633,0,5.6106,5.6349,5.6535,5.6603,5.6771,5.6857,5.6931,5.7052,5.7143,5.7272,5.7331,5.7477,5.7556,5.7668,5.7729,5.7668,5.7947,5.7877,5.7983,5.7982,5.8043,5.8038,5.8315,5.8091,5.8091,5.809,5.809,0,5.6332,5.649,5.6595,5.671,5.6887,5.6948,5.7121,5.7193,5.73,5.7428,5.7449,5.7568,5.7641,5.777,5.7818,5.7995,5.8031,5.8066,5.8077,5.8065,5.8061,5.8117,5.8105,5.8098,5.8096,5.8095,5.8093,0,5.6506,5.6583,5.6787,5.6929,5.6969,5.7093,5.7213,5.7324,5.7387,5.7548,5.7589,5.7688,5.7841,5.7912,5.8101,5.8133,5.8334,5.8336,5.8292,5.8296,5.8399,5.8388,5.8722,5.8768,5.8513,5.8516,5.8518,0,5.6646,5.6768,5.6923,5.7011,5.7087,5.7228,5.7321,5.7384,5.748,5.7631,5.7723,5.7877,5.8003,5.8245,5.8333,5.8476,5.8481,5.8588,5.8503,5.8486,5.8483,5.8475,5.8487,5.8604,5.8606,5.8608,5.861,0,5.6886,5.6917,5.7051,5.7199,5.7309,5.7428,5.7545,5.7614,5.7696,5.7802,5.7958,5.8056,5.8248,5.84,5.8549,5.8622,5.863,5.8636,5.8668,5.8657,5.8627,5.8644,5.8334,5.8628,5.8626,5.8625,5.8624,5.8623,5.7047,5.7156,5.7282,5.743,5.7524,5.7632,5.7743,5.782,5.7952,5.8115,5.8143,5.8309,5.8429,5.8631,5.8709,5.8838,5.8813,5.886,5.8872,5.8883,5.8889,5.8606,5.8865,5.8865,5.8865,5.8864,5.8864,0,5.7288,5.7369,5.7505,5.7667,5.7783,5.7781,5.7908,5.8005,5.8152,5.8264,5.8388,5.8566,5.8713,5.8811,5.8959,5.9043,5.905,5.908,5.9074,5.9091,5.8902,5.886,5.9072,5.9072,5.9072,5.9071,5.9071,5.9071,5.7427,5.7611,5.7657,5.7886,5.7966,5.813,5.8203,5.8302,5.8392,5.8591,5.8713,5.8776,5.8883,5.9038,5.9171,5.9196,5.9249,5.928,5.9304,5.9126,5.9104,5.9084,5.9044,5.9291,5.9291,5.9482,5.9483,5.9485]}]]